Date,TemperatureHighF,TemperatureAvgF,TemperatureLowF,DewpointHighF,DewpointAvgF,DewpointLowF,HumidityHigh,HumidityAvg,HumidityLow,PressureMaxIn,PressureMinIn,WindSpeedMaxMPH,WindSpeedAvgMPH,GustSpeedMaxMPH,PrecipitationSumIn
2013-7-1,77.6,70.5,60.3,56.0,52.3,49.0,76,54,37,29.93,29.88,18,9,26,0.00
2013-7-2,74.8,66.6,60.5,57.0,54.1,50.0,80,65,44,29.95,29.90,19,8,22,0.00
2013-7-3,79.5,68.2,58.6,58.0,55.2,50.0,91,66,37,29.98,29.91,8,3,10,0.00
2013-7-6,83.0,79.0,73.8,69.0,67.0,62.0,82,67,50,29.93,29.85,11,3,13,0.00
2013-7-7,88.4,79.0,68.6,71.0,67.8,63.0,82,69,52,29.90,29.83,14,5,21,0.00
2013-7-8,84.7,78.5,72.6,75.0,71.2,69.0,90,78,67,29.93,29.85,17,5,22,0.20
2013-7-9,87.4,81.8,77.4,77.0,74.9,73.0,88,80,69,29.89,29.75,11,4,17,0.01
2013-7-10,85.5,80.5,70.6,75.0,68.8,61.0,86,68,52,29.89,29.72,15,5,19,0.00
2013-7-11,79.8,73.4,64.2,65.0,58.7,54.0,92,62,43,29.98,29.90,12,5,15,0.00
2013-7-12,82.6,77.3,62.9,60.0,55.0,52.0,78,47,37,30.04,29.95,10,4,13,0.00
2013-7-13,82.1,75.0,65.8,64.0,59.8,53.0,79,60,44,30.03,29.95,16,6,18,0.00
2013-7-14,87.9,78.6,66.5,71.0,66.6,63.0,89,68,49,30.05,29.98,13,5,17,0.00
2013-7-15,87.3,79.4,71.2,77.0,72.2,69.0,91,79,64,30.13,30.04,14,4,17,0.05
2013-7-16,90.5,82.6,74.7,74.0,72.4,70.0,90,73,52,30.19,30.11,11,2,13,0.00
2013-7-17,92.6,84.5,76.5,76.0,72.4,70.0,82,68,51,30.20,30.06,7,2,9,0.00
2013-7-18,92.4,85.6,79.0,76.0,73.7,72.0,84,69,52,30.07,29.86,14,3,17,0.00
2013-7-19,92.6,86.0,77.7,74.0,72.1,69.0,83,64,47,29.86,29.68,22,7,24,0.00
2013-7-20,86.6,80.3,72.2,73.0,67.1,58.0,91,66,38,29.80,29.70,12,4,13,0.01
2013-7-21,80.3,75.0,66.8,72.0,68.4,63.0,90,80,62,29.82,29.73,7,2,13,0.05
2013-7-22,86.5,77.5,68.6,74.0,69.5,65.0,94,78,57,29.75,29.64,26,4,33,0.10
2013-7-23,79.4,71.7,65.2,69.0,62.6,-99.9,92,76,58,29.83,29.64,15,-5,21,0.12
2013-7-24,75.8,66.6,57.6,59.0,55.0,52.0,92,68,46,29.95,29.83,13,5,17,0.00
2013-7-25,80.8,70.3,59.7,60.0,55.2,51.0,78,60,43,30.01,29.93,11,2,13,0.00
2013-7-26,72.1,67.7,63.8,68.0,61.9,58.0,93,82,68,29.94,29.80,14,5,21,0.41
2013-7-27,65.6,62.4,58.6,59.0,53.0,47.0,89,72,53,29.86,29.81,16,7,24,0.00
2013-7-28,71.2,63.4,55.9,55.0,51.8,49.0,81,67,53,29.95,29.83,16,7,23,0.00
2013-7-29,77.0,66.1,56.9,56.0,53.8,51.0,90,67,43,30.05,29.95,7,2,9,0.00
2013-7-30,68.8,66.9,63.0,66.0,62.3,54.0,95,86,61,30.04,29.92,12,4,16,0.53
2013-7-31,75.0,70.5,67.3,68.0,67.0,66.0,97,89,76,29.93,29.86,6,2,11,0.01